Location: Capelle
(50.3413°N, 1.9974°E)
Time: 21:19:24
(UTC+00:00)

NOSS 2-3 (D) - Pass Details

Date: 12 January 2026
Orbit: 497 x 1701 km, 63.3° (Epoch: 24 April)

Event Time Altitude Azimuth Distance (km) Brightness Sun altitude
Rises 17:30:06 0° 316° (NW) 2,972 7.4 -11.8°
Reaches altitude 10° 17:32:08 10° 317° (NW) 2,173 6.7 -12.1°
Maximum altitude 17:37:06 89° 44° (NE) 856 4.2 -12.9°
Drops below altitude 10° 17:43:49 10° 138° (SE) 2,904 6.7 -13.9°
Sets 17:46:53 0° 139° (SE) 4,051 7.5 -14.3°
